Weather History for KPBI - November, 2014

Change the Weather History Date:

Wednesday, November 12, 2014

  Actual Average Record
Temperature  
Mean Temperature 72 °F 73 °F  
Max Temperature 84 °F 81 °F 90 °F (1947)
Min Temperature 60 °F 66 °F 48 °F (1913)
Degree Days  
Heating Degree Days 0 0  
Month to date heating degree days 8 0  
Since 1 July heating degree days 8 1  
Cooling Degree Days 7 9  
Month to date cooling degree days 68 113  
Year to date cooling degree days 4004 3734  
Growing Degree Days 22 (Base 50)    
Moisture  
Dew Point 61 °F    
Average Humidity 71    
Maximum Humidity 90    
Minimum Humidity 51    
Precipitation  
Precipitation 0.00 in 0.19 in 1.40 in (1938)
Month to date precipitation 0.92 2.12  
Year to date precipitation 58.51 56.32  
Snow  
Snow 0.00 in - - ()
Month to date snowfall 0.0  
Since 1 July snowfall 0.0  
Since 1 September snowfall 0.0  
Snow Depth 0.00 in    
Sea Level Pressure  
Sea Level Pressure 29.97 in    
Wind  
Wind Speed 8 mph (NW)    
Max Wind Speed 15 mph    
Max Gust Speed 21 mph    
Visibility 10 miles    
Events      
T = Trace of Precipitation, MM = Missing Value Source: NWS Daily Summary

Daily Weather History Graph

Daily Weather History Graph

Search for Another Location

Airport or City:

Trip Planner

Search our weather history database for the weather conditions in past years. The results will help you decide how hot, cold, wet, or windy it might be!

Date:

Astronomy

Nov. 12, 2014 Rise Set
Actual Time 6:37 AM EST 5:31 PM EST
Civil Twilight 6:13 AM EST 5:55 PM EST
Nautical Twilight 5:45 AM EST 6:23 PM EST
Astronomical Twilight 5:17 AM EST 6:51 PM EST
Moon 10:45 PM EST (11/12) 11:24 AM EST (11/12)
Length of Visible Light 11h 42m
Length of Day
10h 53m
Waning Gibbous, 68% of the Moon is Illuminated
Nov 12
Waning Gibbous
Nov 14
Last Quarter
Nov 22
New
Nov 29
First Quarter
Dec 6
Full

Hourly Weather History & Observations

Time (EST) Temp. Heat Index Dew Point Humidity Pressure Visibility Wind Dir Wind Speed Gust Speed Precip Events Conditions
12:53 AM 66.0 °F - 59.0 °F 78% 29.94 in 10.0 mi WNW 10.4 mph - N/A   Mostly Cloudy
1:53 AM 64.9 °F - 57.9 °F 78% 29.94 in 10.0 mi WNW 8.1 mph - N/A   Scattered Clouds
2:53 AM 63.0 °F - 57.0 °F 81% 29.94 in 10.0 mi WNW 6.9 mph - N/A   Scattered Clouds
3:53 AM 63.0 °F - 57.0 °F 81% 29.94 in 10.0 mi WNW 8.1 mph - N/A   Clear
4:53 AM 62.1 °F - 55.9 °F 80% 29.94 in 10.0 mi West 5.8 mph - N/A   Clear
5:53 AM 60.1 °F - 55.9 °F 86% 29.96 in 10.0 mi WNW 5.8 mph - N/A   Clear
6:53 AM 61.0 °F - 55.9 °F 83% 29.99 in 10.0 mi WNW 5.8 mph - N/A   Scattered Clouds
7:53 AM 66.0 °F - 55.9 °F 70% 30.00 in 10.0 mi WNW 4.6 mph - N/A   Partly Cloudy
8:53 AM 71.1 °F - 57.9 °F 63% 30.01 in 10.0 mi WNW 8.1 mph - N/A   Scattered Clouds
9:53 AM 75.0 °F - 61.0 °F 62% 30.02 in 10.0 mi NW 9.2 mph - N/A   Partly Cloudy
10:53 AM 79.0 °F - 64.0 °F 60% 30.01 in 10.0 mi NW 10.4 mph - N/A   Partly Cloudy
11:53 AM 81.0 °F 82.2 °F 63.0 °F 54% 29.99 in 10.0 mi NW 12.7 mph - N/A   Partly Cloudy
12:53 PM 82.0 °F 83.1 °F 63.0 °F 52% 29.96 in 10.0 mi NW 9.2 mph - N/A   Partly Cloudy
1:53 PM 82.9 °F 84.0 °F 63.0 °F 51% 29.95 in 10.0 mi NNW 9.2 mph - N/A   Scattered Clouds
2:53 PM 82.0 °F 83.4 °F 64.0 °F 54% 29.94 in 10.0 mi NNE 10.4 mph - N/A   Scattered Clouds
3:53 PM 80.1 °F 81.7 °F 64.0 °F 58% 29.94 in 10.0 mi NNE 12.7 mph - N/A   Scattered Clouds
4:53 PM 78.1 °F - 63.0 °F 60% 29.95 in 10.0 mi NNE 10.4 mph - N/A   Scattered Clouds
5:53 PM 75.9 °F - 64.0 °F 67% 29.96 in 10.0 mi North 9.2 mph - N/A   Mostly Cloudy
6:53 PM 75.0 °F - 64.9 °F 71% 29.97 in 10.0 mi North 8.1 mph - N/A   Scattered Clouds
7:53 PM 71.1 °F - 64.0 °F 78% 29.98 in 10.0 mi NNW 4.6 mph - N/A   Partly Cloudy
8:53 PM 69.1 °F - 64.0 °F 84% 29.99 in 10.0 mi NNW 4.6 mph - N/A   Partly Cloudy
9:53 PM 68.0 °F - 64.9 °F 90% 29.99 in 10.0 mi NW 6.9 mph - N/A   Partly Cloudy
10:53 PM 69.1 °F - 66.0 °F 90% 30.00 in 10.0 mi NW 8.1 mph - N/A   Partly Cloudy
11:53 PM 68.0 °F - 66.0 °F 93% 29.99 in 10.0 mi NNW 5.8 mph - N/A   Clear